Regional Weather Roundup
Issued by NWS

Home | Current Version | Previous Version | Text Only | Print | Product List | Glossary Off
Versions: 1 2 3 4 5 6 7 8 9 10 11 12 13 14 15 16 17 18 19 20 21 22 23 24 25 26 27 28 29 30 31 32 33 34 35 36 37 38 39 40 41 42 43 44 45 46 47 48 49 50

000
ASUS43 KLOT 172000
RWRIL

ILLINOIS REGIONAL WEATHER ROUNDUP
NATIONAL WEATHER SERVICE CHICAGO/ROMEOVILLE IL
300 PM CDT THU APR 17 2014

NOTE: "FAIR" INDICATES FEW OR NO CLOUDS BELOW 12,000 FEET WITH NO
SIGNIFICANT WEATHER AND/OR OBSTRUCTIONS TO VISIBILITY.

* THESE STATIONS ARE NOT UNDER NWS QUALITY CONTROL. THEY ALSO MAY NOT
  REPORT WEATHER SUCH AS PRECIPITATION OR FOG.

ILZ001-002-007-009-015-016-024-172100-
NORTHWEST ILLINOIS

CITY           SKY/WX    TMP DP  RH WIND       PRES   REMARKS
MOLINE         MOSUNNY   54  36  50 W5        30.24S
STERLING*      MOSUNNY   57  39  51 W8G16     30.22S
$$

ILZ003-004-008-010-011-017-018-172100-
NORTH CENTRAL ILLINOIS

CITY           SKY/WX    TMP DP  RH WIND       PRES   REMARKS
ROCKFORD       CLOUDY    57  38  48 W9        30.23R
$$

ILZ005-006-012>014-019>023-172100-
NORTHEAST ILLINOIS

CITY           SKY/WX    TMP DP  RH WIND       PRES   REMARKS
CHICAGO-OHARE  PTSUNNY   60  37  42 W14G22    30.19R
CHICAGO-MIDWAY PTSUNNY   61  39  44 SW15      30.20R
AURORA         MOSUNNY   59  39  47 SW9G18    30.21R
WAUKEGAN       MOSUNNY   58  38  47 W8        30.18R
DUPAGE AIRPORT MOSUNNY   60  39  45 SW15      30.19S
WHEELING       MOSUNNY   60  39  45 W12       30.20R
NORTHERLY ISL    N/A     60  36  40 SW10        N/A
$$

LMZ740>746-172100-
SOUTHERN LAKE MICHIGAN

STATION/POSITION SKY/WX   TEMP    WIND        PRES    VSBY  WAVE
                          AIR SEA DIR/SP/G                  HT/PER
                          (F)     (DEG/KT/KT) (MB)    (MI)  (FT/S)
WAUKEGAN HARBOR            57     220/ 13/ 22 1022.7S
HARRISON CRIB              56     230/ 13/ 16   N/A
BURNHAM HARBOR             60     300/ 13/ 15   N/A
CALUMET HARBOR             60     210/ 11/ 15 1022.9R
MICHIGAN CITY              58     210/ 17/ 24   N/A
$$

ILZ025>027-034>036-040-047-049-050-058-095>099-172100-
WEST-CENTRAL ILLINOIS

CITY           SKY/WX    TMP DP  RH WIND       PRES   REMARKS
QUINCY         CLOUDY    51  36  56 VRB5      30.26S
$$

ILZ028>032-037-038-041>044-048-051>054-059>061-172100-
CENTRAL ILLINOIS

CITY           SKY/WX    TMP DP  RH WIND       PRES   REMARKS
DECATUR        CLOUDY    61  38  42 W13       30.24S
PEORIA         MOSUNNY   57  38  48 W7        30.24S
SPRINGFIELD    CLOUDY    61  37  41 W9        30.24F
TAYLORVILLE    NOT AVBL
$$

ILZ033-039-045-046-055>057-062-063-172100-
EAST-CENTRAL ILLINOIS

CITY           SKY/WX    TMP DP  RH WIND       PRES   REMARKS
CHAMPAIGN      PTSUNNY   64  37  36 SW15G24   30.23F
MATTOON        CLOUDY    63  37  38 S12G17    30.23F
$$

ILZ079-100>102-172100-
SOUTHWEST ILLINOIS

CITY           SKY/WX    TMP DP  RH WIND       PRES   REMARKS
ALTON          PTSUNNY   63  32  31 NW6       30.23F
BELLEVILLE     CLOUDY    67  39  35 S6        30.21F
CAHOKIA*       CLOUDY    67  38  34 NW8       30.21F
$$

ILZ064>066-069>071-074>076-080>082-084>086-088>090-092>094-172100-
SOUTH-CENTRAL ILLINOIS

CITY           SKY/WX    TMP DP  RH WIND       PRES   REMARKS
CARBONDALE     MOSUNNY   67  35  30 SW14      30.24S
MT. VERNON     MOSUNNY   66  36  32 SW8       30.24F
$$

ILZ067-068-072-073-078-083-087-091-172100-
SOUTHEAST ILLINOIS

CITY           SKY/WX    TMP DP  RH WIND       PRES   REMARKS
$$

ABBREVIATIONS USED IN REMARKS
   TC - TEMPERATURE IN CELSIUS
  WCI - WIND CHILL INDEX
   HX - HEAT INDEX
  VSB - VISIBILITY
$$




USA.gov is the U.S. government's official web portal to all federal, state and local government web resources and services.